User: anonymous   Login
Location: Pulvis Stellarum Observatory
(41.6962°N, 71.4263°W)
Time: 18:54:32
(UTC-05:00)
Language:

Cosmos 1758 - Orbit

View from above orbital plane
View from above orbital plane
View from above satellite
View from above satellite

Ground track
Ground track

The orbit data is extracted from the following two-line orbital elements,

1 16791U 86046A   16038.52836244  .00001932  00000-0  13842-3 0  9996
2 16791  82.4728 154.7857 0016345 339.4361  20.6205 15.03759361611173
Epoch (UTC): 07 February 2016 12:40:50
Eccentricity: 0.0016345
inclination: 82.4728°
perigee height: 544 km
apogee height: 566 km
right ascension of ascending node: 154.7857°
argument of perigee: 339.4361°
revolutions per day: 15.03759361
mean anomaly at epoch: 20.6205°
orbit number at epoch: 61117

The dashed part of the orbit path shows where the satellite is in the earth's shadow,  

DLR